Tracking 19247 objects as of 24-Sep-2018
HD Live streaming from Space Station
objects crossing your sky now

FENGYUN 1C DEB

Track FENGYUN 1C DEB now!
10-day predictions


NORAD ID: 31995
Int'l Code: 1999-025CPY
Perigee: 836.3 km
Apogee: 1,053.8 km
Inclination: 98.4 °
Period: 103.8 minutes
Semi major axis: 7316 km
RCS: 0.0104 m2 (small)
Launch date: May 10, 1999
Source: People's Republic of China (PRC)
Launch site: Taiyaun Space Center, China (TSC)

Note: This is SATELLITE DEBRIS
aabbcc
Your satellite tracking list
Your tracking list is empty




NASA's NSSDC Master Catalog

Two Line Element Set (TLE):
1 31995U 99025CPY 18254.69040642 +.00000630 +00000-0 +51907-3 0  9997
2 31995 098.4112 206.2054 0148632 046.1203 315.2121 13.87354067566953
Source of the keplerian elements: AFSPC